Carnival Victory — 3FFL8 — position and weather

sailwx.info

Track history (hours):
 
Tides and Currents Weather Stations Pressure Air Temp Water Temp Dewpoint Dewpoint Depression Visibility Wind Speed Wind Dir Waves Ship Positions

Carnival Victory

Operator: Carnival Cruise Lines

Last reported at 2014-Oct-19 04:33 UTC. Time now 2014-Oct-23 03:41 UTC.
Position N 26°00' W 078°07'.

Type: Ship. MMSI: 355263000.

Date/timePositionNaut miles runAvg speedWind from/ knotsBaromVisibWave heightAir tempDewpointWater temp
2014-Oct-19 04:33N 26°00' W 078°07'1717.3
2014-Oct-19 03:33N 26°06' W 078°25'1716.4
2014-Oct-19 02:29N 26°12' W 078°44'1616.5
2014-Oct-19 01:30N 26°16' W 079°01'1515.7
2014-Oct-19 00:33N 26°13' W 079°17'1716.9
2014-Oct-18 23:33N 26°04' W 079°33'1817.5
2014-Oct-18 22:33N 25°54' W 079°49'1616.2
2014-Oct-18 21:33N 25°46' W 080°05'5 4.4
2014-Oct-18 20:26N 25°47' W 080°10'0 0.0
2014-Oct-18 19:32N 25°47' W 080°10'2 3.6
2014-Oct-18 19:00N 25°48' W 080°12'2 3.4 340 / 221010.010.8 1.527.023.030.0
2014-Oct-18 18:25N 25°47' W 080°10'2 4.5
2014-Oct-18 18:00N 25°48' W 080°12'2 3.1 340 / 221010.010.8 1.527.023.030.0
2014-Oct-18 17:22N 25°47' W 080°10'2 5.2
2014-Oct-18 17:00N 25°48' W 080°12'2 4.0 340 / 221010.010.8 1.527.023.030.0
2014-Oct-18 16:30N 25°47' W 080°10'0 0.0
2014-Oct-18 15:21N 25°47' W 080°10'0 0.0
2014-Oct-18 14:32N 25°47' W 080°10'0 0.0
2014-Oct-18 13:26N 25°47' W 080°10'0 0.0
2014-Oct-18 12:32N 25°47' W 080°10'0 0.0
2014-Oct-18 11:32N 25°47' W 080°10'6 6.1
2014-Oct-18 10:33N 25°46' W 080°04'1212.3
2014-Oct-18 09:33N 25°35' W 079°60'  
2014-Oct-15 19:00N 18°24' W 077°06'114 9.5 340 / 221010.010.8 1.527.023.030.0
2014-Oct-15 07:00N 19°24' W 075°24'8 8.2 340 / 221010.010.8 1.527.023.030.0
2014-Oct-15 06:00N 19°30' W 075°30'35113.5 340 / 221010.010.8 1.527.023.030.0
2014-Oct-14 04:00N 24°06' W 079°24'9016.6 340 / 221010.010.8 1.527.023.030.0
2014-Oct-13 22:33N 25°32' W 079°56'1414.2
2014-Oct-13 21:33N 25°44' W 080°02'7 6.9
2014-Oct-13 20:31N 25°47' W 080°10'0 0.0
2014-Oct-13 19:25N 25°47' W 080°10'0 0.0
2014-Oct-13 18:33N 25°47' W 080°10'0 0.0
2014-Oct-13 17:27N 25°47' W 080°10'0 0.0
2014-Oct-13 16:32N 25°47' W 080°10'0 0.0
2014-Oct-13 15:29N 25°47' W 080°10'0 0.0
2014-Oct-13 14:22N 25°47' W 080°10'0 0.0
2014-Oct-13 13:31N 25°47' W 080°10'0 0.0
2014-Oct-13 12:21N 25°47' W 080°10'0 0.0
2014-Oct-13 11:33N 25°47' W 080°10'1 1.2
2014-Oct-13 10:33N 25°46' W 080°09'8 8.3
2014-Oct-13 09:33N 25°43' W 080°01'36615.5
2014-Oct-12 10:00N 22°00' W 085°18'2524.6 230 / 51012.010.8 1.026.023.029.0
2014-Oct-12 09:00N 21°42' W 085°36'2524.6 230 / 51012.010.8 1.026.023.029.0
2014-Oct-12 08:00N 21°24' W 085°54'8 8.2 340 / 221010.010.8 1.527.023.030.0
2014-Oct-12 07:00N 21°18' W 086°00'6516.8 340 / 221010.010.8 1.527.023.030.0
2014-Oct-12 03:08N 20°39' W 086°55'915.6
2014-Oct-12 02:33N 20°31' W 086°59'2 2.1
2014-Oct-12 01:33N 20°29' W 086°59'0 0.0
2014-Oct-12 00:27N 20°29' W 086°59'0 0.0
2014-Oct-11 23:20N 20°29' W 086°59'0 0.0
2014-Oct-11 22:32N 20°29' W 086°59'0 0.0
2014-Oct-11 21:32N 20°29' W 086°59'0 0.0
2014-Oct-11 20:31N 20°29' W 086°59'0 0.0
2014-Oct-11 19:31N 20°29' W 086°59'0 0.0
2014-Oct-11 18:30N 20°29' W 086°59'0 0.0
2014-Oct-11 17:34N 20°29' W 086°59'7012.6
2014-Oct-11 12:00N 21°12' W 086°00'2512.3 340 / 221010.010.8 1.527.023.030.0
2014-Oct-11 10:00N 21°30' W 085°42'25384.4 340 / 221010.010.8 1.527.023.030.0
2014-Oct-11 07:00N 22°06' W 081°12'200 6.5 090 / 151012.010.8 1.028.024.029.0
2014-Oct-10 00:12N 25°15' W 080°02'813.2
2014-Oct-09 23:34N 25°24' W 080°01'1312.8
2014-Oct-09 22:33N 25°36' W 080°01'1010.1
2014-Oct-09 21:33N 25°46' W 080°06'4 3.7
2014-Oct-09 20:33N 25°47' W 080°10'0 0.0
2014-Oct-09 19:33N 25°47' W 080°10'0 0.0
2014-Oct-09 18:26N 25°47' W 080°10'0 0.0
2014-Oct-09 17:32N 25°47' W 080°10'0 0.0
2014-Oct-09 16:29N 25°47' W 080°10'0 0.0
2014-Oct-09 15:31N 25°47' W 080°10'0 0.0
2014-Oct-09 14:31N 25°47' W 080°10'0 0.0
2014-Oct-09 13:21N 25°47' W 080°10'0 0.0
2014-Oct-09 12:33N 25°47' W 080°10'0 0.0
2014-Oct-09 11:30N 25°47' W 080°10'6 6.7
2014-Oct-09 10:33N 25°47' W 080°03'1514.5
2014-Oct-09 09:33N 25°33' W 079°58'  
Track history (hours):
 
Tides and Currents Weather Stations Pressure Air Temp Water Temp Dewpoint Dewpoint Depression Visibility Wind Speed Wind Dir Waves Ship Positions

Carnival Victory

Operator: Carnival Cruise Lines

Last reported at 2014-Oct-19 04:33 UTC. Time now 2014-Oct-23 03:41 UTC.
Position N 26°00' W 078°07'.

Type: Ship. MMSI: 355263000.

Date/timePositionNaut miles runAvg speedWind from/ knotsBaromVisibWave heightAir tempDewpointWater temp
2014-Oct-19 04:33N 26°00' W 078°07'1717.3
2014-Oct-19 03:33N 26°06' W 078°25'1716.4
2014-Oct-19 02:29N 26°12' W 078°44'1616.5
2014-Oct-19 01:30N 26°16' W 079°01'1515.7
2014-Oct-19 00:33N 26°13' W 079°17'1716.9
2014-Oct-18 23:33N 26°04' W 079°33'1817.5
2014-Oct-18 22:33N 25°54' W 079°49'1616.2
2014-Oct-18 21:33N 25°46' W 080°05'5 4.4
2014-Oct-18 20:26N 25°47' W 080°10'0 0.0
2014-Oct-18 19:32N 25°47' W 080°10'2 3.6
2014-Oct-18 19:00N 25°48' W 080°12'2 3.4 340 / 221010.010.8 1.527.023.030.0
2014-Oct-18 18:25N 25°47' W 080°10'2 4.5
2014-Oct-18 18:00N 25°48' W 080°12'2 3.1 340 / 221010.010.8 1.527.023.030.0
2014-Oct-18 17:22N 25°47' W 080°10'2 5.2
2014-Oct-18 17:00N 25°48' W 080°12'2 4.0 340 / 221010.010.8 1.527.023.030.0
2014-Oct-18 16:30N 25°47' W 080°10'0 0.0
2014-Oct-18 15:21N 25°47' W 080°10'0 0.0
2014-Oct-18 14:32N 25°47' W 080°10'0 0.0
2014-Oct-18 13:26N 25°47' W 080°10'0 0.0
2014-Oct-18 12:32N 25°47' W 080°10'0 0.0
2014-Oct-18 11:32N 25°47' W 080°10'6 6.1
2014-Oct-18 10:33N 25°46' W 080°04'1212.3
2014-Oct-18 09:33N 25°35' W 079°60'  
2014-Oct-15 19:00N 18°24' W 077°06'114 9.5 340 / 221010.010.8 1.527.023.030.0
2014-Oct-15 07:00N 19°24' W 075°24'8 8.2 340 / 221010.010.8 1.527.023.030.0
2014-Oct-15 06:00N 19°30' W 075°30'35113.5 340 / 221010.010.8 1.527.023.030.0
2014-Oct-14 04:00N 24°06' W 079°24'9016.6 340 / 221010.010.8 1.527.023.030.0
2014-Oct-13 22:33N 25°32' W 079°56'1414.2
2014-Oct-13 21:33N 25°44' W 080°02'7 6.9
2014-Oct-13 20:31N 25°47' W 080°10'0 0.0
2014-Oct-13 19:25N 25°47' W 080°10'0 0.0
2014-Oct-13 18:33N 25°47' W 080°10'0 0.0
2014-Oct-13 17:27N 25°47' W 080°10'0 0.0
2014-Oct-13 16:32N 25°47' W 080°10'0 0.0
2014-Oct-13 15:29N 25°47' W 080°10'0 0.0
2014-Oct-13 14:22N 25°47' W 080°10'0 0.0
2014-Oct-13 13:31N 25°47' W 080°10'0 0.0
2014-Oct-13 12:21N 25°47' W 080°10'0 0.0
2014-Oct-13 11:33N 25°47' W 080°10'1 1.2
2014-Oct-13 10:33N 25°46' W 080°09'8 8.3
2014-Oct-13 09:33N 25°43' W 080°01'36615.5
2014-Oct-12 10:00N 22°00' W 085°18'2524.6 230 / 51012.010.8 1.026.023.029.0
2014-Oct-12 09:00N 21°42' W 085°36'2524.6 230 / 51012.010.8 1.026.023.029.0
2014-Oct-12 08:00N 21°24' W 085°54'8 8.2 340 / 221010.010.8 1.527.023.030.0
2014-Oct-12 07:00N 21°18' W 086°00'6516.8 340 / 221010.010.8 1.527.023.030.0
2014-Oct-12 03:08N 20°39' W 086°55'915.6
2014-Oct-12 02:33N 20°31' W 086°59'2 2.1
2014-Oct-12 01:33N 20°29' W 086°59'0 0.0
2014-Oct-12 00:27N 20°29' W 086°59'0 0.0
2014-Oct-11 23:20N 20°29' W 086°59'0 0.0
2014-Oct-11 22:32N 20°29' W 086°59'0 0.0
2014-Oct-11 21:32N 20°29' W 086°59'0 0.0
2014-Oct-11 20:31N 20°29' W 086°59'0 0.0
2014-Oct-11 19:31N 20°29' W 086°59'0 0.0
2014-Oct-11 18:30N 20°29' W 086°59'0 0.0
2014-Oct-11 17:34N 20°29' W 086°59'7012.6
2014-Oct-11 12:00N 21°12' W 086°00'2512.3 340 / 221010.010.8 1.527.023.030.0
2014-Oct-11 10:00N 21°30' W 085°42'25384.4 340 / 221010.010.8 1.527.023.030.0
2014-Oct-11 07:00N 22°06' W 081°12'200 6.5 090 / 151012.010.8 1.028.024.029.0
2014-Oct-10 00:12N 25°15' W 080°02'813.2
2014-Oct-09 23:34N 25°24' W 080°01'1312.8
2014-Oct-09 22:33N 25°36' W 080°01'1010.1
2014-Oct-09 21:33N 25°46' W 080°06'4 3.7
2014-Oct-09 20:33N 25°47' W 080°10'0 0.0
2014-Oct-09 19:33N 25°47' W 080°10'0 0.0
2014-Oct-09 18:26N 25°47' W 080°10'0 0.0
2014-Oct-09 17:32N 25°47' W 080°10'0 0.0
2014-Oct-09 16:29N 25°47' W 080°10'0 0.0
2014-Oct-09 15:31N 25°47' W 080°10'0 0.0
2014-Oct-09 14:31N 25°47' W 080°10'0 0.0
2014-Oct-09 13:21N 25°47' W 080°10'0 0.0
2014-Oct-09 12:33N 25°47' W 080°10'0 0.0
2014-Oct-09 11:30N 25°47' W 080°10'6 6.7
2014-Oct-09 10:33N 25°47' W 080°03'1514.5
2014-Oct-09 09:33N 25°33' W 079°58'  

Dump ship's entire track history